Back to catalog

STARLINK-37042

AliveCommunicationsVLEO
NORAD 68266·PAYLOAD·🇺🇸 United States

Launched Mar 19, 2026 from Vandenberg Space Force Base

Loading…

Next Passes (next 24 hours)

TLE

FreshSource: CelesTrak SupGP

Epoch: Sep 14, 2026, 23:14 UTC

1 68266C 26055E   26257.96854167 -.00084097  00000+0 -24841-2 0  2571
2 68266  53.1569 155.9190 0001154  88.6266 109.3218 15.34439344    11

Track STARLINK-37042 in real time with AllMySat

Download on the App Store